TimeCST,TemperatureF,Dew PointF,Humidity,Sea Level PressureIn,VisibilityMPH,Wind Direction,Wind SpeedMPH,Gust SpeedMPH,PrecipitationIn,Events,Conditions,WindDirDegrees,DateUTC
12:15 AM,47.3,39.2,73,30.11,10.0,Calm,Calm,-,N/A,,Clear,0,2013-11-03 05:15:00
12:35 AM,47.3,39.2,73,30.11,10.0,Calm,Calm,-,N/A,,Mostly Cloudy,0,2013-11-03 05:35:00
12:55 AM,46.2,39.7,78,30.12,10.0,Calm,Calm,-,N/A,,Overcast,0,2013-11-03 05:55:00
1:15 AM,45.7,40.3,81,30.12,10.0,Calm,Calm,-,N/A,,Overcast,0,2013-11-03 06:15:00
1:35 AM,45.7,39.9,80,30.12,10.0,Calm,Calm,-,N/A,,Overcast,0,2013-11-03 06:35:00
1:55 AM,46.8,39.2,75,30.13,10.0,Calm,Calm,-,N/A,,Overcast,0,2013-11-03 06:55:00
1:15 AM,46.9,39.2,74,30.13,10.0,Calm,Calm,-,N/A,,Overcast,0,2013-11-03 07:15:00
1:35 AM,46.8,39.0,74,30.13,10.0,Calm,Calm,-,N/A,,Overcast,0,2013-11-03 07:35:00
1:55 AM,45.3,39.2,79,30.14,10.0,Calm,Calm,-,N/A,,Overcast,0,2013-11-03 07:55:00
2:15 AM,44.4,37.8,77,30.14,10.0,Calm,Calm,-,N/A,,Scattered Clouds,0,2013-11-03 08:15:00
2:35 AM,42.8,38.7,85,30.14,10.0,Calm,Calm,-,N/A,,Clear,0,2013-11-03 08:35:00
2:55 AM,41.5,38.7,89,30.15,10.0,Calm,Calm,-,N/A,,Clear,0,2013-11-03 08:55:00
3:15 AM,40.6,38.3,91,30.15,10.0,Calm,Calm,-,N/A,,Clear,0,2013-11-03 09:15:00
3:35 AM,39.7,37.9,93,30.16,10.0,Calm,Calm,-,N/A,,Scattered Clouds,0,2013-11-03 09:35:00
3:55 AM,39.7,37.6,92,30.16,10.0,Calm,Calm,-,N/A,,Mostly Cloudy,0,2013-11-03 09:55:00
4:15 AM,39.6,37.8,93,30.17,10.0,Calm,Calm,-,N/A,,Mostly Cloudy,0,2013-11-03 10:15:00
4:35 AM,38.7,37.2,95,30.18,10.0,Calm,Calm,-,N/A,,Mostly Cloudy,0,2013-11-03 10:35:00
4:55 AM,39.0,37.4,94,30.20,10.0,Calm,Calm,-,N/A,,Scattered Clouds,0,2013-11-03 10:55:00
5:15 AM,39.0,36.9,92,30.21,10.0,Calm,Calm,-,N/A,,Mostly Cloudy,0,2013-11-03 11:15:00
5:35 AM,39.2,37.2,93,30.21,10.0,Calm,Calm,-,N/A,,Overcast,0,2013-11-03 11:35:00
5:55 AM,38.7,36.9,93,30.23,10.0,Calm,Calm,-,N/A,,Overcast,0,2013-11-03 11:55:00
6:15 AM,39.0,37.4,94,30.23,10.0,Calm,Calm,-,N/A,,Overcast,0,2013-11-03 12:15:00
6:35 AM,39.4,37.6,93,30.24,10.0,Calm,Calm,-,N/A,,Overcast,0,2013-11-03 12:35:00
6:55 AM,40.3,38.3,93,30.26,10.0,Calm,Calm,-,N/A,,Overcast,0,2013-11-03 12:55:00
7:15 AM,41.4,38.8,91,30.27,10.0,Calm,Calm,-,N/A,,Overcast,0,2013-11-03 13:15:00
7:35 AM,42.8,39.0,86,30.28,10.0,Calm,Calm,-,N/A,,Mostly Cloudy,0,2013-11-03 13:35:00
7:55 AM,43.9,38.3,81,30.29,10.0,Calm,Calm,-,N/A,,Mostly Cloudy,0,2013-11-03 13:55:00
8:15 AM,45.3,37.8,75,30.30,10.0,NNE,5.8,-,N/A,,Overcast,30,2013-11-03 14:15:00
8:35 AM,47.3,38.7,72,30.30,10.0,NNE,6.9,-,N/A,,Overcast,20,2013-11-03 14:35:00
8:55 AM,46.0,37.4,72,30.30,10.0,North,5.8,-,N/A,,Mostly Cloudy,360,2013-11-03 14:55:00
9:15 AM,47.3,37.8,69,30.31,10.0,NE,6.9,-,N/A,,Mostly Cloudy,40,2013-11-03 15:15:00
9:35 AM,48.9,37.4,64,30.31,10.0,East,8.1,-,N/A,,Mostly Cloudy,80,2013-11-03 15:35:00
9:55 AM,49.1,36.7,62,30.31,10.0,East,6.9,-,N/A,,Mostly Cloudy,80,2013-11-03 15:55:00
10:15 AM,50.2,35.6,57,30.31,10.0,East,5.8,-,N/A,,Overcast,90,2013-11-03 16:15:00
10:35 AM,50.2,36.5,59,30.32,10.0,NE,5.8,-,N/A,,Overcast,40,2013-11-03 16:35:00
10:55 AM,49.8,35.8,59,30.32,10.0,ENE,4.6,-,N/A,,Overcast,60,2013-11-03 16:55:00
11:15 AM,50.2,35.4,57,30.31,10.0,ENE,5.8,-,N/A,,Mostly Cloudy,70,2013-11-03 17:15:00
11:35 AM,52.5,34.7,51,30.30,10.0,Calm,Calm,-,N/A,,Scattered Clouds,0,2013-11-03 17:35:00
11:55 AM,52.7,34.5,50,30.30,10.0,NE,6.9,-,N/A,,Overcast,50,2013-11-03 17:55:00
12:15 PM,51.4,34.3,52,30.29,10.0,North,4.6,-,N/A,,Overcast,360,2013-11-03 18:15:00
12:35 PM,51.4,33.6,51,30.29,10.0,Calm,Calm,-,N/A,,Mostly Cloudy,0,2013-11-03 18:35:00
12:55 PM,52.9,34.2,49,30.28,10.0,NNE,6.9,-,N/A,,Mostly Cloudy,30,2013-11-03 18:55:00
1:15 PM,52.5,33.8,49,30.28,10.0,Calm,Calm,-,N/A,,Scattered Clouds,0,2013-11-03 19:15:00
1:35 PM,54.0,32.7,45,30.27,10.0,South,3.5,-,N/A,,Mostly Cloudy,190,2013-11-03 19:35:00
1:55 PM,54.5,33.6,45,30.26,10.0,NE,3.5,-,N/A,,Scattered Clouds,50,2013-11-03 19:55:00
2:15 PM,54.5,32.5,43,30.26,10.0,Calm,Calm,-,N/A,,Clear,0,2013-11-03 20:15:00
2:35 PM,55.0,32.7,43,30.26,10.0,Calm,Calm,-,N/A,,Scattered Clouds,0,2013-11-03 20:35:00
2:55 PM,54.7,33.8,45,30.26,10.0,Calm,Calm,-,N/A,,Scattered Clouds,0,2013-11-03 20:55:00
3:15 PM,54.3,32.9,44,30.26,10.0,NE,5.8,-,N/A,,Clear,40,2013-11-03 21:15:00
3:35 PM,53.6,32.9,45,30.26,10.0,NE,3.5,-,N/A,,Clear,40,2013-11-03 21:35:00
3:55 PM,53.2,33.3,47,30.26,10.0,NNE,3.5,-,N/A,,Clear,20,2013-11-03 21:55:00
4:15 PM,52.0,33.1,49,30.27,10.0,Calm,Calm,-,N/A,,Clear,0,2013-11-03 22:15:00
4:35 PM,50.0,34.7,56,30.28,10.0,Calm,Calm,-,N/A,,Clear,0,2013-11-03 22:35:00
4:55 PM,48.6,35.1,60,30.29,10.0,Calm,Calm,-,N/A,,Clear,0,2013-11-03 22:55:00
5:15 PM,46.6,35.2,65,30.29,10.0,Calm,Calm,-,N/A,,Clear,0,2013-11-03 23:15:00
5:35 PM,44.8,35.6,70,30.30,10.0,Calm,Calm,-,N/A,,Clear,0,2013-11-03 23:35:00
5:55 PM,44.6,35.6,71,30.30,10.0,Calm,Calm,-,N/A,,Clear,0,2013-11-03 23:55:00
6:15 PM,43.7,35.6,73,30.30,10.0,Calm,Calm,-,N/A,,Clear,0,2013-11-04 00:15:00
6:35 PM,42.3,35.6,77,30.30,10.0,Calm,Calm,-,N/A,,Clear,0,2013-11-04 00:35:00
6:55 PM,41.2,35.6,81,30.30,10.0,Calm,Calm,-,N/A,,Clear,0,2013-11-04 00:55:00
7:15 PM,39.6,35.6,86,30.31,10.0,Calm,Calm,-,N/A,,Clear,0,2013-11-04 01:15:00
7:35 PM,38.8,35.6,88,30.31,10.0,Calm,Calm,-,N/A,,Clear,0,2013-11-04 01:35:00
7:55 PM,38.8,35.6,88,30.31,10.0,Calm,Calm,-,N/A,,Clear,0,2013-11-04 01:55:00
8:15 PM,37.6,34.9,90,30.31,10.0,Calm,Calm,-,N/A,,Clear,0,2013-11-04 02:15:00
8:35 PM,37.4,34.9,91,30.30,10.0,Calm,Calm,-,N/A,,Clear,0,2013-11-04 02:35:00
8:55 PM,36.5,34.7,93,30.31,10.0,Calm,Calm,-,N/A,,Clear,0,2013-11-04 02:55:00
9:15 PM,36.3,34.3,93,30.33,10.0,Calm,Calm,-,N/A,,Clear,0,2013-11-04 03:15:00
9:35 PM,36.0,34.2,93,30.35,10.0,Calm,Calm,-,N/A,,Clear,0,2013-11-04 03:35:00
9:55 PM,35.2,34.0,95,30.35,10.0,Calm,Calm,-,N/A,,Clear,0,2013-11-04 03:55:00
10:15 PM,34.9,33.8,96,30.34,10.0,Calm,Calm,-,N/A,,Clear,0,2013-11-04 04:15:00
10:35 PM,34.7,33.3,94,30.33,10.0,Calm,Calm,-,N/A,,Clear,0,2013-11-04 04:35:00
10:55 PM,34.3,33.3,96,30.35,10.0,Calm,Calm,-,N/A,,Clear,0,2013-11-04 04:55:00